Location: York
(31.8935°S, 116.7682°E)
Time: 13:55:46
(UTC+08:00)

Explorer 11/Cluster Stage 4 - All Passes

Search period start: 15 June 2021 00:00
Search period end: 25 June 2021 00:00
Orbit: 467 x 1257 km, 28.8° (Epoch: 14 June)

Date Brightness Start Highest point End Pass type
(mag) Time Alt. Az. Time Alt. Az. Time Alt. Az.
15 Jun - 01:18:44 10° WNW 01:22:45 15° NNW 01:26:52 10° N night (unlit)
15 Jun - 16:07:58 10° NNE 16:09:22 11° NNE 16:10:51 10° NE daylight
15 Jun - 17:52:49 10° NW 17:56:58 39° NNE 18:02:04 10° E visible
15 Jun - 19:40:11 10° WNW 19:45:16 65° N 19:51:43 10° E visible
15 Jun - 21:28:09 10° W 21:33:59 56° N 21:41:10 10° ENE visible
15 Jun - 23:16:52 10° W 23:22:48 31° NNW 23:29:33 10° NE night (unlit)
16 Jun - 01:08:47 10° NW 01:11:28 12° NNW 01:14:14 10° N night (unlit)
16 Jun - 15:56:23 10° N 15:58:18 13° NNE 16:00:20 10° ENE daylight
16 Jun - 17:41:53 10° NW 17:45:56 42° NNE 17:50:54 10° E visible
16 Jun - 19:29:20 10° W 19:34:13 64° N 19:40:24 10° E visible
16 Jun - 21:17:17 10° W 21:22:51 51° NNW 21:29:44 10° ENE visible
16 Jun - 23:06:05 10° WNW 23:11:35 27° NNW 23:17:51 10° NNE night (unlit)
17 Jun - 15:44:59 10° N 15:47:14 15° NNE 15:49:40 10° ENE daylight
17 Jun - 17:30:59 10° WNW 17:34:56 44° NNE 17:39:43 10° E daylight
17 Jun - 19:18:29 10° W 19:23:11 63° N 19:29:07 10° E visible
17 Jun - 21:06:27 10° W 21:11:44 46° NNW 21:18:17 10° ENE visible
17 Jun - 22:55:24 10° WNW 23:00:23 23° NNW 23:06:03 10° NNE night (unlit)
18 Jun - 15:33:42 10° NNW 15:36:12 17° NNE 15:38:53 10° ENE daylight
18 Jun - 17:20:05 10° WNW 17:23:57 47° NNE 17:28:34 10° E daylight
18 Jun - 19:07:39 10° W 19:12:10 61° N 19:17:49 10° ENE visible
18 Jun - 20:55:38 10° W 21:00:38 41° NNW 21:06:49 10° NE visible
18 Jun - 22:44:51 10° WNW 22:49:13 19° NNW 22:54:07 10° NNE night (unlit)
19 Jun - 15:22:29 10° NNW 15:25:12 19° NNE 15:28:05 10° ENE daylight
19 Jun - 17:09:13 10° WNW 17:12:59 49° N 17:17:26 10° E daylight
19 Jun - 18:56:50 10° W 19:01:10 57° N 19:06:33 10° ENE visible
19 Jun - 20:44:52 10° W 20:49:33 36° NNW 20:55:18 10° NE visible
19 Jun - 22:34:29 10° WNW 22:38:04 16° NNW 22:42:01 10° N night (unlit)
20 Jun - 15:11:19 10° NNW 15:14:12 22° NNE 15:17:15 10° ENE daylight
20 Jun - 16:58:20 10° WNW 17:02:01 51° N 17:06:20 10° E daylight
20 Jun - 18:46:02 10° W 18:50:11 53° N 18:55:17 10° ENE visible
20 Jun - 20:34:08 10° WNW 20:38:30 30° NNW 20:43:45 10° NE visible
20 Jun - 22:24:31 10° NW 22:26:56 12° NNW 22:29:33 10° N night (unlit)
21 Jun - 15:00:10 10° NW 15:03:14 25° NNE 15:06:23 10° ENE daylight
21 Jun - 16:47:27 10° WNW 16:51:05 53° N 16:55:14 10° E daylight
21 Jun - 18:35:13 10° W 18:39:13 49° N 18:44:01 10° ENE visible
21 Jun - 20:23:28 10° WNW 20:27:27 26° NNW 20:32:09 10° NE visible
22 Jun - 14:49:03 10° NW 14:52:17 29° NNE 14:55:32 10° ENE daylight
22 Jun - 16:36:34 10° WNW 16:40:10 54° N 16:44:10 10° E daylight
22 Jun - 18:24:26 10° W 18:28:14 43° N 18:32:46 10° ENE visible
22 Jun - 20:12:54 10° WNW 20:16:25 21° NNW 20:20:30 10° NNE visible
23 Jun - 12:52:03 10° N 12:53:31 12° NNE 12:54:55 10° NE daylight
23 Jun - 14:37:57 10° NW 14:41:20 33° NNE 14:44:40 10° E daylight
23 Jun - 16:25:41 10° WNW 16:29:15 54° N 16:33:07 10° ENE daylight
23 Jun - 18:13:38 10° W 18:17:17 38° N 18:21:31 10° ENE visible
23 Jun - 20:02:25 10° WNW 20:05:24 17° NNW 20:08:44 10° NNE visible
24 Jun - 12:40:06 10° NNW 12:42:31 15° NNE 12:44:46 10° ENE daylight
24 Jun - 14:26:51 10° WNW 14:30:24 37° NNE 14:33:48 10° E daylight
24 Jun - 16:14:47 10° WNW 16:18:21 53° N 16:22:06 10° ENE daylight
24 Jun - 18:02:52 10° WNW 18:06:19 33° NNW 18:10:15 10° NE visible
24 Jun - 19:52:11 10° NW 19:54:22 13° NNW 19:56:45 10° N visible
